Regional Weather Roundup
Issued by NWS Northern Indiana

Home | Current Version | Previous Version | Graphics & Text | Print | Product List | Glossary On
Versions: 1 2 3 4 5 6 7 8 9 10 11 12 13 14 15 16 17 18 19 20 21 22 23 24 25 26 27 28 29 30 31 32 33 34 35 36 37 38 39 40 41 42 43 44 45 46 47 48 49 50
000
ASUS43 KIWX 200101
RWRIWX

KIWX WEATHER ROUNDUP
NATIONAL WEATHER SERVICE NORTHERN INDIANA
900 PM EDT TUE SEP 19 2017

NOTE: "FAIR" INDICATES FEW OR NO CLOUDS BELOW 12,000 FEET WITH NO
SIGNIFICANT WEATHER AND/OR OBSTRUCTIONS TO VISIBILITY.

* THESE STATIONS ARE NOT UNDER NWS QUALITY CONTROL. THEY ALSO MAY NOT
  REPORT WEATHER SUCH AS PRECIPITATION OR FOG.

INZ001>027-200200-
NORTHERN INDIANA

CITY           SKY/WX    TMP DP  RH WIND       PRES   REMARKS
MICHIGAN CITY* CLEAR     63  63 100 CALM      29.94R
SOUTH BEND     CLEAR     67  66  97 CALM      29.93R
ELKHART*       PTCLDY    68  64  88 CALM      29.93R
GOSHEN         CLOUDY    68  64  87 N3        29.93R
FORT WAYNE     MOCLDY    69  67  93 SE5       29.93R
PERU/GRISSOM   CLEAR     68  67  96 SE3       29.92R

$$
INZ028>050-200200-
CENTRAL INDIANA

CITY           SKY/WX    TMP DP  RH WIND       PRES   REMARKS
LAFAYETTE      CLEAR     67  67 100 CALM      29.91R
KOKOMO*        CLEAR     67  65  93 CALM      29.94R
MUNCIE*        PTCLDY    70  65  84 E3        29.94R
INDIANAPOLIS   PTCLDY    74  66  76 CALM      29.92R

$$
MIZ043>046-050>051-056>058-064>065-071>073-077>080-200200-
SOUTHWEST LOWER MICHIGAN

CITY           SKY/WX    TMP DP  RH WIND       PRES   REMARKS
BATTLE CREEK   LGT RAIN  68  66  93 NE7       29.95R FOG
BENTON HARBOR  MOCLDY    67  63  87 CALM      29.92S
COLDWATER*     CLOUDY    68  68 100 NE3       29.94S FOG
HILLSDALE*     CLOUDY    63  61  94 NE3       29.96R FOG
HOLLAND        CLOUDY    69  60  73 E5        29.95R
GRAND RAPIDS   CLOUDY    68  62  81 NE7       29.95R
KALAMAZOO      CLOUDY    69  64  84 NE3       29.94S HAZE
STURGIS*       CLOUDY    66  66  98 CALM      29.93S
THREE RIVERS*  CLOUDY    68  67  96 CALM      29.94R FOG

$$
OHZ001>008-015>018-024>025-200200-
NORTHWEST OHIO

CITY           SKY/WX    TMP DP  RH WIND       PRES   REMARKS
DEFIANCE       CLOUDY    68  66  93 E3        29.94R
FINDLAY        CLOUDY    71  67  87 SE7       29.94R
TOLEDO EXPRESS CLOUDY    69  69 100 E5        29.94R FOG
TOLEDO METCALF CLOUDY    69  66  90 E3        29.96R FOG
LIMA           CLOUDY    70  67  90 S7        29.95R

$$
AND FOR LAKE MICHIGAN COASTAL AND OPEN LAKE BUOY OBSERVATIONS

STATION/POSITION TEMP    WIND        PRES    VSBY  WAVE
                 AIR SEA DIR/SP/G                  HT/PER
                 (F)     (DEG/KT/KT) (MB)    (MI)  (FT/S)
CALUMET HARBOR    68      20/  4/  5 1012.7R
MICHIGAN CITY     67      50/  4/  5   N/A
BURNS HARBOR      68      70/  6/  8 1013.9R
SAINT JOSEPH      69      CALM  /  1 1014.2
SOUTH LAKE BUOY   68 69   20/  6/  6 1013.2          1
4 MI NW BRIDGMAN  68 69   90/  4/  6 1013.0S         1/ 3
MICHIGAN CITY     68 69   70/  6/  6   N/A           1/ 4

$$
&&




USA.gov is the U.S. government's official web portal to all federal, state and local government web resources and services.